| time (UTC) | temp F | wind direction | speed MPH | gust MPH | rain 1hr in | rain 24hr in | rain mn in | humidity % | barometer mb |
| 20260505234329 | 84 | 190 | 2.0 | 8.0 | 0.00 | 0.00 | 0.00 | 69 | 1007.5 |
| 20260505233402 | 85 | 252 | 5.0 | 9.0 | 0.00 | 0.00 | 0.00 | 68 | 1007.5 |
| 20260505232420 | 84 | 127 | 2.0 | 6.0 | 0.00 | 0.00 | 0.00 | 69 | 1007.4 |
| 20260505230333 | 85 | 186 | 4.0 | 10.0 | 0.00 | 0.00 | 0.00 | 68 | 1007.5 |
| 20260505225400 | 85 | 92 | 6.0 | 10.0 | 0.00 | 0.00 | 0.00 | 68 | 1007.4 |
| 20260505224422 | 85 | 184 | 3.0 | 10.0 | 0.00 | 0.00 | 0.00 | 69 | 1007.3 |
| 20260505223347 | 85 | 113 | 5.0 | 10.0 | 0.00 | 0.00 | 0.00 | 68 | 1007.2 |
| 20260505222403 | 85 | 149 | 3.0 | 9.0 | 0.00 | 0.00 | 0.00 | 69 | 1007.4 |
| 20260505221422 | 85 | 211 | 4.0 | 9.0 | 0.00 | 0.00 | 0.00 | 68 | 1007.4 |
| 20260505220339 | 85 | 171 | 4.0 | 10.0 | 0.00 | 0.00 | 0.00 | 68 | 1007.4 |
| 20260505215411 | 85 | 244 | 4.0 | 9.0 | 0.00 | 0.00 | 0.00 | 69 | 1007.4 |
| 20260505214343 | 84 | 160 | 3.0 | 8.0 | 0.00 | 0.00 | 0.00 | 69 | 1007.6 |
| 20260505213405 | 84 | 209 | 5.0 | 9.0 | 0.00 | 0.00 | 0.00 | 69 | 1007.9 |
| 20260505212327 | 84 | 251 | 3.0 | 9.0 | 0.00 | 0.00 | 0.00 | 69 | 1008.1 |
| 20260505211353 | 83 | 132 | 2.0 | 9.0 | 0.00 | 0.00 | 0.00 | 70 | 1008.1 |
| 20260505210421 | 83 | 147 | 3.0 | 8.0 | 0.00 | 0.00 | 0.00 | 70 | 1008.2 |
| 20260505205343 | 83 | 189 | 4.0 | 11.0 | 0.00 | 0.00 | 0.00 | 71 | 1008.5 |
| 20260505204414 | 83 | 240 | 3.0 | 11.0 | 0.00 | 0.00 | 0.00 | 70 | 1008.5 |
| 20260505203325 | 83 | 246 | 6.0 | 11.0 | 0.00 | 0.00 | 0.00 | 70 | 1008.7 |
| 20260505202353 | 83 | 151 | 5.0 | 9.0 | 0.00 | 0.00 | 0.00 | 70 | 1008.8 |
| 20260505201327 | 82 | 133 | 4.0 | 8.0 | 0.00 | 0.00 | 0.00 | 71 | 1008.9 |
| 20260505200356 | 82 | 161 | 3.0 | 7.0 | 0.00 | 0.00 | 0.00 | 72 | 1009.1 |
| 20260505195325 | 82 | 215 | 4.0 | 10.0 | 0.00 | 0.00 | 0.00 | 72 | 1009.1 |
| 20260505193358 | 81 | 150 | 4.0 | 10.0 | 0.00 | 0.00 | 0.00 | 75 | 1009.4 |
| 20260505192325 | 81 | 179 | 4.0 | 12.0 | 0.00 | 0.00 | 0.00 | 74 | 1009.5 |
| 20260505191342 | 81 | 140 | 4.0 | 10.0 | 0.00 | 0.00 | 0.00 | 74 | 1009.7 |
| 20260505190413 | 80 | 249 | 5.0 | 9.0 | 0.00 | 0.00 | 0.00 | 76 | 1009.8 |
| 20260505185335 | 79 | 138 | 4.0 | 10.0 | 0.00 | 0.00 | 0.00 | 77 | 1010.0 |
| 20260505184411 | 79 | 168 | 5.0 | 10.0 | 0.00 | 0.00 | 0.00 | 76 | 1010.1 |
| 20260505183336 | 79 | 177 | 4.0 | 9.0 | 0.00 | 0.00 | 0.00 | 77 | 1010.2 |
| 20260505182400 | 79 | 233 | 4.0 | 10.0 | 0.00 | 0.00 | 0.00 | 78 | 1010.2 |
| 20260505181328 | 78 | 261 | 3.0 | 11.0 | 0.00 | 0.00 | 0.00 | 78 | 1010.4 |
| 20260505180348 | 77 | 213 | 3.0 | 8.0 | 0.00 | 0.00 | 0.00 | 80 | 1010.4 |
| 20260505175417 | 77 | 242 | 4.0 | 9.0 | 0.00 | 0.00 | 0.00 | 79 | 1010.6 |
| 20260505174328 | 77 | 236 | 3.0 | 11.0 | 0.00 | 0.00 | 0.00 | 79 | 1010.7 |
| 20260505173358 | 77 | 222 | 4.0 | 10.0 | 0.00 | 0.00 | 0.00 | 80 | 1010.5 |
| 20260505172325 | 77 | 178 | 5.0 | 10.0 | 0.00 | 0.00 | 0.00 | 80 | 1010.6 |
| 20260505171337 | 76 | 166 | 5.0 | 8.0 | 0.00 | 0.00 | 0.00 | 82 | 1010.7 |
| 20260505170405 | 75 | 140 | 5.0 | 9.0 | 0.00 | 0.00 | 0.00 | 83 | 1010.7 |
| 20260505165325 | 75 | 229 | 3.0 | 9.0 | 0.00 | 0.00 | 0.00 | 85 | 1010.8 |
| 20260505164352 | 74 | 184 | 4.0 | 9.0 | 0.00 | 0.00 | 0.00 | 86 | 1010.7 |
| 20260505163331 | 74 | 218 | 5.0 | 12.0 | 0.00 | 0.00 | 0.00 | 87 | 1010.7 |
| 20260505162352 | 73 | 208 | 3.0 | 11.0 | 0.00 | 0.00 | 0.00 | 88 | 1010.8 |
| 20260505161405 | 73 | 234 | 4.0 | 13.0 | 0.00 | 0.00 | 0.00 | 88 | 1010.9 |
| 20260505160407 | 72 | 220 | 3.0 | 13.0 | 0.00 | 0.00 | 0.00 | 88 | 1010.6 |
| 20260505152328 | 71 | 179 | 4.0 | 7.0 | 0.00 | 0.00 | 0.00 | 90 | 1010.7 |
| 20260505151344 | 71 | 245 | 3.0 | 9.0 | 0.00 | 0.00 | 0.00 | 91 | 1010.7 |
| 20260505150349 | 70 | 198 | 2.0 | 9.0 | 0.00 | 0.00 | 0.00 | 91 | 1010.7 |
| 20260505140339 | 69 | 201 | 3.0 | 6.0 | 0.00 | 0.00 | 0.00 | 91 | 1010.6 |
| 20260505124337 | 70 | 165 | 4.0 | 8.0 | 0.00 | 0.00 | 0.00 | 90 | 1010.1 |
| 20260505123411 | 70 | 254 | 3.0 | 10.0 | 0.00 | 0.00 | 0.00 | 90 | 1010.0 |
| 20260505122335 | 69 | 234 | 2.0 | 9.0 | 0.00 | 0.00 | 0.00 | 90 | 1009.8 |
| 20260505121406 | 69 | 217 | 3.0 | 8.0 | 0.00 | 0.00 | 0.00 | 90 | 1009.7 |
| 20260505120328 | 69 | 187 | 3.0 | 7.0 | 0.00 | 0.00 | 0.00 | 90 | 1009.5 |
| 20260505115347 | 69 | 153 | 2.0 | 7.0 | 0.00 | 0.00 | 0.00 | 90 | 1009.5 |
| 20260505114415 | 69 | 212 | 5.0 | 10.0 | 0.00 | 0.00 | 0.00 | 90 | 1009.5 |
| 20260505113329 | 69 | 186 | 4.0 | 11.0 | 0.00 | 0.00 | 0.00 | 90 | 1009.4 |
| 20260505112410 | 69 | 246 | 5.0 | 11.0 | 0.00 | 0.00 | 0.00 | 90 | 1009.4 |
| 20260505111343 | 69 | 203 | 3.0 | 9.0 | 0.00 | 0.00 | 0.00 | 90 | 1009.3 |
| 20260505110346 | 69 | 215 | 3.0 | 11.0 | 0.00 | 0.00 | 0.00 | 90 | 1009.2 |
| 20260505100337 | 69 | 196 | 3.0 | 8.0 | 0.00 | 0.00 | 0.00 | 89 | 1009.7 |
| 20260505095338 | 69 | 161 | 2.0 | 9.0 | 0.00 | 0.00 | 0.00 | 89 | 1009.5 |
| 20260505094412 | 69 | 176 | 4.0 | 11.0 | 0.00 | 0.00 | 0.00 | 89 | 1009.6 |
| 20260505093329 | 69 | 166 | 4.0 | 9.0 | 0.00 | 0.00 | 0.00 | 89 | 1009.6 |
| 20260505092355 | 70 | 238 | 6.0 | 12.0 | 0.00 | 0.00 | 0.00 | 89 | 1009.6 |
| 20260505091421 | 70 | 178 | 6.0 | 12.0 | 0.00 | 0.00 | 0.00 | 89 | 1009.7 |
| 20260505090325 | 70 | 169 | 5.0 | 11.0 | 0.00 | 0.00 | 0.00 | 89 | 1009.8 |
| 20260505085354 | 70 | 158 | 4.0 | 10.0 | 0.00 | 0.00 | 0.00 | 89 | 1009.8 |
| 20260505084350 | 70 | 169 | 5.0 | 10.0 | 0.00 | 0.00 | 0.00 | 89 | 1009.8 |
| 20260505083421 | 70 | 240 | 5.0 | 11.0 | 0.00 | 0.00 | 0.00 | 89 | 1010.0 |
| 20260505082350 | 70 | 199 | 5.0 | 10.0 | 0.00 | 0.00 | 0.00 | 88 | 1010.0 |
| 20260505081349 | 70 | 150 | 3.0 | 12.0 | 0.00 | 0.00 | 0.00 | 88 | 1010.1 |
| 20260505080415 | 70 | 178 | 4.0 | 10.0 | 0.00 | 0.00 | 0.00 | 88 | 1010.2 |
| 20260505075343 | 70 | 163 | 5.0 | 10.0 | 0.00 | 0.00 | 0.00 | 88 | 1010.4 |
| 20260505074404 | 70 | 180 | 5.0 | 10.0 | 0.00 | 0.00 | 0.00 | 88 | 1010.4 |
| 20260505073329 | 70 | 223 | 2.0 | 12.0 | 0.00 | 0.00 | 0.00 | 88 | 1010.6 |
| 20260505072338 | 70 | 189 | 5.0 | 11.0 | 0.00 | 0.00 | 0.00 | 87 | 1010.7 |
| 20260505071359 | 70 | 221 | 6.0 | 10.0 | 0.00 | 0.00 | 0.00 | 87 | 1010.8 |
| 20260505070331 | 70 | 156 | 4.0 | 12.0 | 0.00 | 0.00 | 0.00 | 87 | 1011.0 |
| 20260505065341 | 70 | 218 | 6.0 | 11.0 | 0.00 | 0.00 | 0.00 | 87 | 1011.2 |
| 20260505064323 | 70 | 169 | 6.0 | 14.0 | 0.00 | 0.00 | 0.00 | 86 | 1011.4 |
| 20260505063332 | 71 | 176 | 6.0 | 15.0 | 0.00 | 0.00 | 0.00 | 86 | 1011.5 |
| 20260505062336 | 71 | 157 | 6.0 | 11.0 | 0.00 | 0.00 | 0.00 | 86 | 1011.6 |
| 20260505061328 | 71 | 248 | 5.0 | 10.0 | 0.00 | 0.00 | 0.00 | 86 | 1011.4 |
| 20260505060333 | 71 | 180 | 5.0 | 11.0 | 0.00 | 0.00 | 0.00 | 86 | 1011.6 |
| 20260505055338 | 71 | 178 | 4.0 | 13.0 | 0.00 | 0.00 | 0.00 | 86 | 1011.6 |
| 20260505054351 | 71 | 182 | 9.0 | 17.0 | 0.00 | 0.00 | 0.00 | 86 | 1011.6 |
| 20260505053334 | 71 | 153 | 5.0 | 14.0 | 0.00 | 0.00 | 0.00 | 85 | 1011.6 |
| 20260505052333 | 71 | 207 | 7.0 | 17.0 | 0.00 | 0.00 | 0.00 | 85 | 1011.6 |
| 20260505051325 | 71 | 193 | 6.0 | 11.0 | 0.00 | 0.00 | 0.00 | 85 | 1011.6 |
| 20260505050328 | 71 | 168 | 4.0 | 11.0 | 0.00 | 0.00 | 0.00 | 85 | 1011.6 |
| 20260505041331 | 72 | 186 | 5.0 | 10.0 | 0.00 | 0.00 | 0.00 | 84 | 1011.5 |
| 20260505040355 | 72 | 175 | 4.0 | 9.0 | 0.00 | 0.00 | 0.00 | 83 | 1011.5 |
| 20260505035359 | 72 | 183 | 2.0 | 7.0 | 0.00 | 0.00 | 0.00 | 82 | 1011.5 |
| 20260505034410 | 72 | 146 | 3.0 | 9.0 | 0.00 | 0.00 | 0.00 | 82 | 1011.3 |
| 20260505033333 | 72 | 177 | 3.0 | 7.0 | 0.00 | 0.00 | 0.00 | 82 | 1011.3 |
| 20260505025340 | 72 | 180 | 1.0 | 4.0 | 0.00 | 0.00 | 0.00 | 80 | 1011.1 |
| 20260505024408 | 73 | 164 | 0.0 | 2.0 | 0.00 | 0.00 | 0.00 | 80 | 1011.3 |
| 20260505023345 | 73 | 164 | 0.0 | 2.0 | 0.00 | 0.00 | 0.00 | 79 | 1011.3 |
| 20260505022408 | 73 | 164 | 0.0 | 2.0 | 0.00 | 0.00 | 0.00 | 78 | 1011.2 |
| 20260505021342 | 74 | 164 | 0.0 | 2.0 | 0.00 | 0.00 | 0.00 | 77 | 1011.2 |
| 20260505020351 | 74 | 164 | 0.0 | 2.0 | 0.00 | 0.00 | 0.00 | 76 | 1011.0 |
| 20260505015419 | 74 | 164 | 0.0 | 3.0 | 0.00 | 0.00 | 0.00 | 75 | 1010.9 |
| 20260505014330 | 75 | 171 | 1.0 | 5.0 | 0.00 | 0.00 | 0.00 | 74 | 1010.9 |
| 20260505013401 | 75 | 159 | 1.0 | 5.0 | 0.00 | 0.00 | 0.00 | 73 | 1010.9 |
| 20260505012333 | 76 | 160 | 1.0 | 6.0 | 0.00 | 0.00 | 0.00 | 71 | 1011.0 |
| 20260505011403 | 76 | 157 | 1.0 | 3.0 | 0.00 | 0.00 | 0.00 | 71 | 1010.9 |
| 20260505010324 | 77 | 179 | 2.0 | 5.0 | 0.00 | 0.00 | 0.00 | 69 | 1010.7 |
| 20260505004348 | 78 | 180 | 6.0 | 11.0 | 0.00 | 0.00 | 0.00 | 67 | 1010.8 |
| 20260505003403 | 78 | 155 | 7.0 | 11.0 | 0.00 | 0.00 | 0.00 | 66 | 1010.6 |
| 20260505002326 | 79 | 196 | 4.0 | 11.0 | 0.00 | 0.00 | 0.00 | 65 | 1010.6 |
| 20260505001401 | 79 | 178 | 5.0 | 12.0 | 0.00 | 0.00 | 0.00 | 64 | 1010.6 |
| 20260505000415 | 79 | 142 | 5.0 | 10.0 | 0.00 | 0.00 | 0.00 | 64 | 1010.5 |
| 20260504235355 | 79 | 180 | 5.0 | 12.0 | 0.00 | 0.00 | 0.00 | 64 | 1010.8 |